When you browse on this site, cookies collect data to enhance your experience and personalize the content and advertising you see.
Visit our Privacy Policy to learn more. By continuing to use the site, you agree to this use of cookies and data.

Hourly Weather Vselyub

Today, 29 September, Tuesday

Time Temperature Precipitation Wind Pressure Humidity
00:00 +9°C° 0 mm 3 mps 748 mmHg 82%
01:00 +9°C° 0 mm 3 mps 748 mmHg 82%
02:00 +9°C° 0 mm 3 mps 747 mmHg 83%
03:00 +9°C° 0 mm 3 mps 747 mmHg 81%
04:00 +9°C° 0 mm 3 mps 747 mmHg 80%
05:00 +8°C° 0 mm 4 mps 747 mmHg 78%
06:00 +10°C° 0 mm 4 mps 747 mmHg 76%
07:00 +11°C° 0 mm 4 mps 747 mmHg 73%
08:00 +11°C° 0 mm 4 mps 747 mmHg 71%
09:00 +13°C° 0 mm 4 mps 747 mmHg 66%
10:00 +14°C° 0 mm 4 mps 747 mmHg 62%
11:00 +17°C° 0 mm 4 mps 746 mmHg 58%
12:00 +18°C° 0 mm 4 mps 746 mmHg 56%
13:00 +19°C° 0 mm 4 mps 746 mmHg 54%
14:00 +19°C° 0 mm 4 mps 746 mmHg 52%
15:00 +18°C° 0 mm 4 mps 746 mmHg 56%
16:00 +17°C° 0 mm 4 mps 745 mmHg 60%
17:00 +17°C° 0 mm 3 mps 745 mmHg 64%
18:00 +14°C° 0 mm 4 mps 745 mmHg 69%
19:00 +13°C° 0 mm 4 mps 745 mmHg 74%
20:00 +12°C° 0 mm 4 mps 745 mmHg 80%
21:00 +12°C° 0 mm 4 mps 745 mmHg 84%
22:00 +11°C° 0 mm 4 mps 745 mmHg 88%
23:00 +11°C° 0 mm 4 mps 744 mmHg 92%

Tomorrow, 30 September, Wednesday

Time Temperature Precipitation Wind Pressure Humidity
00:00 +11°C° 0 mm 4 mps 744 mmHg 91%
01:00 +11°C° 0 mm 4 mps 744 mmHg 90%
02:00 +11°C° 0 mm 4 mps 744 mmHg 89%
03:00 +11°C° 0 mm 4 mps 744 mmHg 89%
04:00 +11°C° 0 mm 4 mps 743 mmHg 89%
05:00 +10°C° 0 mm 4 mps 743 mmHg 89%
06:00 +11°C° 0 mm 4 mps 743 mmHg 85%
07:00 +10°C° 0 mm 5 mps 743 mmHg 81%
08:00 +10°C° 0 mm 5 mps 743 mmHg 77%
09:00 +13°C° 0 mm 5 mps 743 mmHg 71%
10:00 +14°C° 0 mm 5 mps 743 mmHg 66%
11:00 +15°C° 0 mm 5 mps 743 mmHg 60%
12:00 +16°C° 0 mm 5 mps 743 mmHg 60%
13:00 +16°C° 0 mm 5 mps 742 mmHg 60%
14:00 +16°C° 0 mm 5 mps 742 mmHg 60%
15:00 +16°C° 0 mm 5 mps 742 mmHg 62%
16:00 +15°C° 0 mm 5 mps 742 mmHg 64%
17:00 +15°C° 0 mm 5 mps 742 mmHg 66%
18:00 +14°C° 0 mm 4 mps 742 mmHg 67%
19:00 +13°C° 0 mm 4 mps 742 mmHg 67%
20:00 +12°C° 0 mm 4 mps 743 mmHg 68%
21:00 +11°C° 0 mm 4 mps 742 mmHg 69%
22:00 +11°C° 0 mm 4 mps 742 mmHg 70%
23:00 +10°C° 0 mm 3 mps 742 mmHg 72%

Day after tomorrow, 1 October, Thursday

Time Temperature Precipitation Wind Pressure Humidity
00:00 +10°C° 0 mm 3 mps 742 mmHg 72%
01:00 +9°C° 0 mm 3 mps 742 mmHg 72%
02:00 +9°C° 0 mm 3 mps 742 mmHg 72%
03:00 +8°C° 0 mm 4 mps 742 mmHg 72%
04:00 +8°C° 0 mm 4 mps 741 mmHg 71%
05:00 +8°C° 0 mm 4 mps 741 mmHg 71%
06:00 +10°C° 0 mm 4 mps 741 mmHg 68%
07:00 +11°C° 0 mm 4 mps 741 mmHg 64%
08:00 +11°C° 0 mm 4 mps 741 mmHg 61%
09:00 +12°C° 0 mm 5 mps 741 mmHg 62%
10:00 +14°C° 0 mm 5 mps 741 mmHg 64%
11:00 +15°C° 0 mm 6 mps 741 mmHg 65%
12:00 +15°C° 0 mm 5 mps 741 mmHg 69%
13:00 +15°C° 0 mm 5 mps 742 mmHg 73%
14:00 +15°C° 0 mm 5 mps 742 mmHg 77%
15:00 +15°C° 0 mm 4 mps 742 mmHg 77%
16:00 +15°C° 0 mm 4 mps 742 mmHg 77%
17:00 +15°C° 0 mm 4 mps 742 mmHg 78%
18:00 +14°C° 0 mm 4 mps 742 mmHg 80%
19:00 +13°C° 0 mm 4 mps 742 mmHg 82%
20:00 +12°C° 0 mm 4 mps 743 mmHg 85%
21:00 +12°C° 0 mm 4 mps 743 mmHg 86%
22:00 +11°C° 0 mm 4 mps 743 mmHg 87%
23:00 +11°C° 0 mm 4 mps 743 mmHg 88%

2 October, Friday

Time Temperature Precipitation Wind Pressure Humidity
00:00 +10°C° 0 mm 4 mps 743 mmHg 88%
01:00 +10°C° 0 mm 3 mps 743 mmHg 87%
02:00 +9°C° 0 mm 3 mps 743 mmHg 86%
03:00 +9°C° 0 mm 3 mps 743 mmHg 86%
04:00 +9°C° 0 mm 3 mps 743 mmHg 86%
05:00 +8°C° 0 mm 4 mps 743 mmHg 86%
06:00 +10°C° 0 mm 4 mps 743 mmHg 84%
07:00 +10°C° 0 mm 4 mps 743 mmHg 83%
08:00 +11°C° 0 mm 4 mps 743 mmHg 81%
09:00 +12°C° 0 mm 5 mps 743 mmHg 77%
10:00 +14°C° 0 mm 5 mps 743 mmHg 72%
11:00 +15°C° 0 mm 5 mps 743 mmHg 67%
12:00 +16°C° 0 mm 5 mps 743 mmHg 65%
13:00 +17°C° 0 mm 5 mps 743 mmHg 63%
14:00 +17°C° 0 mm 5 mps 743 mmHg 61%
15:00 +17°C° 0 mm 5 mps 743 mmHg 65%
16:00 +17°C° 0 mm 4 mps 743 mmHg 69%
17:00 +16°C° 0 mm 3 mps 743 mmHg 73%
18:00 +15°C° 0 mm 4 mps 743 mmHg 76%
19:00 +14°C° 0 mm 4 mps 744 mmHg 79%
20:00 +13°C° 0 mm 4 mps 744 mmHg 82%
21:00 +12°C° 0 mm 4 mps 744 mmHg 84%
22:00 +12°C° 0 mm 4 mps 744 mmHg 86%
23:00 +11°C° 0 mm 4 mps 744 mmHg 88%

3 October, Saturday

Time Temperature Precipitation Wind Pressure Humidity
00:00 +11°C° 0 mm 3 mps 744 mmHg 89%
01:00 +11°C° 0 mm 3 mps 744 mmHg 90%
02:00 +10°C° 0 mm 3 mps 744 mmHg 91%
03:00 +10°C° 0 mm 3 mps 744 mmHg 92%
04:00 +9°C° 0 mm 3 mps 744 mmHg 93%
05:00 +9°C° 0 mm 3 mps 744 mmHg 94%
06:00 +10°C° 0 mm 3 mps 744 mmHg 91%
07:00 +10°C° 0 mm 3 mps 744 mmHg 88%
08:00 +11°C° 0 mm 4 mps 745 mmHg 86%
09:00 +12°C° 0 mm 4 mps 745 mmHg 81%
10:00 +13°C° 0 mm 4 mps 745 mmHg 76%
11:00 +15°C° 0 mm 4 mps 745 mmHg 71%
12:00 +15°C° 0 mm 4 mps 744 mmHg 70%
13:00 +17°C° 0 mm 4 mps 744 mmHg 68%
14:00 +18°C° 0 mm 4 mps 744 mmHg 67%
15:00 +17°C° 0 mm 4 mps 744 mmHg 70%
16:00 +16°C° 0 mm 3 mps 744 mmHg 73%
17:00 +16°C° 0 mm 3 mps 744 mmHg 76%
18:00 +14°C° 0.1 mm 3 mps 744 mmHg 79%
19:00 +14°C° 0.1 mm 3 mps 744 mmHg 82%
20:00 +13°C° 0.1 mm 3 mps 744 mmHg 86%
21:00 +13°C° 0.1 mm 4 mps 744 mmHg 87%
22:00 +13°C° 0.1 mm 4 mps 744 mmHg 88%
23:00 +12°C° 0.1 mm 4 mps 744 mmHg 89%

4 October, Sunday

Time Temperature Precipitation Wind Pressure Humidity
00:00 +12°C° 0.4 mm 4 mps 744 mmHg 90%
01:00 +12°C° 0.4 mm 4 mps 743 mmHg 91%
02:00 +12°C° 0.4 mm 4 mps 743 mmHg 93%
03:00 +12°C° 0.1 mm 5 mps 743 mmHg 93%
04:00 +12°C° 0.1 mm 5 mps 743 mmHg 92%
05:00 +12°C° 0.1 mm 5 mps 743 mmHg 92%
06:00 +13°C° 0 mm 5 mps 743 mmHg 92%
07:00 +13°C° 0 mm 5 mps 743 mmHg 91%
08:00 +13°C° 0 mm 6 mps 743 mmHg 91%
09:00 +14°C° 0 mm 6 mps 743 mmHg 88%
10:00 +15°C° 0 mm 6 mps 743 mmHg 85%
11:00 +15°C° 0 mm 7 mps 743 mmHg 83%
12:00 +16°C° 0.1 mm 7 mps 742 mmHg 80%
13:00 +17°C° 0.1 mm 7 mps 742 mmHg 77%
14:00 +18°C° 0.1 mm 7 mps 742 mmHg 74%
15:00 +17°C° 0.2 mm 7 mps 742 mmHg 77%
16:00 +16°C° 0.2 mm 6 mps 742 mmHg 80%
17:00 +16°C° 0.2 mm 6 mps 742 mmHg 83%
18:00 +15°C° 0.1 mm 7 mps 742 mmHg 85%
19:00 +15°C° 0.1 mm 7 mps 742 mmHg 87%
20:00 +14°C° 0.1 mm 7 mps 742 mmHg 89%
21:00 +14°C° 0 mm 7 mps 742 mmHg 90%
22:00 +15°C° 0 mm 7 mps 742 mmHg 90%
23:00 +15°C° 0 mm 7 mps 742 mmHg 90%
Show more